Location: Hamburg
(53.5554°N, 9.9941°E)
Time: 04:08:18
(UTC+02:00)

ISS - Pass Details

Date: 17 May 2021
Orbit: 417 x 422 km, 51.6° (Epoch: 15 June)

Event Time Altitude Azimuth Distance (km) Brightness Sun altitude
Rises 22:03:28 0° 223° (SW) 2,357 0.0 -6.0°
Reaches altitude 10° 22:05:46 10° 210° (SSW) 1,497 -1.1 -6.2°
Maximum altitude 22:08:37 26° 152° (SSE) 870 -2.7 -6.5°
Drops below altitude 10° 22:11:29 10° 94° (E) 1,506 -1.4 -6.8°
Sets 22:13:47 0° 81° (E) 2,374 -0.3 -7.0°
